User: anonymous   Login
Location: Caltech
(34.1382°N, 118.1253°W)
Time: 23:33:10
(UTC-07:00)
Language:

ADEOS II - Orbit

View from above orbital plane
View from above orbital plane
View from above satellite
View from above satellite

Ground track
Ground track

The orbit data is extracted from the following two-line orbital elements,

1 27597U 02056A   15188.60849753  .00000163  00000-0  83785-4 0  9993
2 27597 098.2874 181.0323 0000370 099.9068 008.6668 14.27104478654062
Epoch (UTC): 07 July 2015 14:36:14
Eccentricity: 0.0000370
inclination: 98.2874°
perigee height: 801 km
apogee height: 801 km
right ascension of ascending node: 181.0323°
argument of perigee: 99.9068°
revolutions per day: 14.27104478
mean anomaly at epoch: 8.6668°
orbit number at epoch: 65406

The dashed part of the orbit path shows where the satellite is in the earth's shadow,  

DLR